Regional Weather Roundup
Issued by NWS Charleston, WV

Home | Current Version | Previous Version | Graphics & Text | Print | Product List | Glossary On
Versions: 1 2 3 4 5 6 7 8 9 10 11 12 13 14 15 16 17 18 19 20 21 22 23 24 25 26 27 28 29 30 31 32 33 34 35 36 37 38 39 40 41 42 43 44 45 46 47 48 49 50
966
ASUS41 KRLX 271710
RWRRLX
West Virginia Regional Weather Roundup
National Weather Service Charleston WV
100 PM EDT WED JUL 27 2016

Note: "fair" indicates few or no clouds below 12,000 feet with no
significant weather and/or obstructions to visibility.

WVZ003-271800-
Northern Panhandle of West Virginia

CITY           SKY/WX    TMP DP  RH WIND       PRES   REMARKS
WHEELING       CLOUDY    87  61  41 VRB7      30.03S
$$

WVZ009-271800-
Northwest West Virginia

CITY           SKY/WX    TMP DP  RH WIND       PRES   REMARKS
PARKERSBURG      N/A     83  72  69 S5        30.04F
$$

WVZ006-271800-
Western West Virginia

CITY           SKY/WX    TMP DP  RH WIND       PRES   REMARKS
HUNTINGTON     PTSUNNY   85  74  69 CALM      30.01F
$$

WVZ015-271800-
West Central West Virginia

CITY           SKY/WX    TMP DP  RH WIND       PRES   REMARKS
CHARLESTON       N/A     85  72  65 VRB6      30.03S
$$

WVZ022-031-271800-
North Central West Virginia

CITY           SKY/WX    TMP DP  RH WIND       PRES   REMARKS
CLARKSBURG       N/A     86  71  60 VRB6      30.03F
MORGANTOWN       N/A     84  68  58 CALM      30.03F
$$

WVZ025-035-042-045-271800-
Southern West Virginia

CITY           SKY/WX    TMP DP  RH WIND       PRES   REMARKS
BECKLEY        PTSUNNY   80  69  69 SW9       30.12R
LOGAN          PTSUNNY   86  73  66 W6G13     30.04F
BLUEFIELD        N/A     82  65  56 NW6       30.14F
LEWISBURG        N/A     82  71  67 SW5       30.10S
$$

WVZ047-271800-
Northern Mountains of West Virginia

CITY           SKY/WX    TMP DP  RH WIND       PRES   REMARKS
ELKINS         PTSUNNY   82  68  62 CALM      30.08F
$$

WVZ052-271800-
Eastern Panhandle of West Virginia

CITY           SKY/WX    TMP DP  RH WIND       PRES   REMARKS
MARTINSBURG      N/A     90  59  35 NE5       29.98F
PETERSBURG       N/A     88  70  54 NE3       30.00F
$$




USA.gov is the U.S. government's official web portal to all federal, state and local government web resources and services.